Location: Home
(42.5358°N, 72.7383°W)
Time: 05:54:25
(UTC-05:00)

Transit 4A - Pass Details

Date: 03 December 2021
Orbit: 863 x 981 km, 66.8° (Epoch: 26 January)

Event Time Altitude Azimuth Distance (km) Brightness Sun altitude
Rises 18:20:00 0° 185° (S) 3,437 11.1 -21.8°
Reaches altitude 10° 18:22:35 10° 178° (S) 2,513 10.2 -22.3°
Enters shadow 18:27:13 38° 128° (SE) 1,325 8.4 -23.1°
